Weather History for Panama City, FL

Change the Weather History Date:

Monday, January 6, 2014

  Actual Average Record
Temperature  
Mean Temperature 46 °F -  
Max Temperature 66 °F - 69 °F (2012)
Min Temperature 25 °F - 25 °F (2014)
Degree Days  
Heating Degree Days 19    
Cooling Degree Days 0    
Moisture  
Dew Point 31 °F    
Average Humidity 62    
Maximum Humidity 93    
Minimum Humidity 31    
Precipitation  
Precipitation 0.07 in - 0.07 in (2014)
Sea Level Pressure  
Sea Level Pressure 30.18 in    
Wind  
Wind Speed 17 mph (NW)    
Max Wind Speed 29 mph    
Max Gust Speed 39 mph    
Visibility 10 miles    
Events Rain    
T = Trace of Precipitation, MM = Missing Value Source: NWS Daily Summary

Daily Weather History Graph

Daily Weather History Graph

Search for Another Location

Airport:

Trip Planner

Search our weather history database for the weather conditions in past years. The results will help you decide how hot, cold, wet, or windy it might be!

Date:

Astronomy

Jan. 06, 2014 Rise Set
Actual Time 7:40 AM EST 5:57 PM EST
Civil Twilight 7:14 AM EST 6:23 PM EST
Nautical Twilight 6:44 AM EST 6:53 PM EST
Astronomical Twilight 6:15 AM EST 7:22 PM EST
Moon 11:22 AM EST (1/6) No Moon Set
Length of Visible Light 11h 09m
Length of Day
10h 16m
Waxing Crescent, 34% of the Moon is Illuminated
Jan 6
Waxing Crescent
Jan 7
First Quarter
Jan 15
Full
Jan 24
Last Quarter
Jan 30
New

Hourly Weather History & Observations

Time (EST) Temp. Windchill Dew Point Humidity Pressure Visibility Wind Dir Wind Speed Gust Speed Precip Events Conditions
12:53 AM 63.0 °F - 61.0 °F 93% 29.89 in 8.0 mi SSE 9.2 mph - N/A   Scattered Clouds
1:53 AM 66.0 °F - 63.0 °F 90% 29.89 in 3.0 mi South 18.4 mph 25.3 mph 0.06 in Rain Light Rain
2:03 AM 66.2 °F - 62.6 °F 88% 29.87 in 7.0 mi WSW 13.8 mph 27.6 mph 0.00 in Rain Light Rain
2:05 AM 66.2 °F - 62.6 °F 88% 29.87 in 10.0 mi West 15.0 mph 26.5 mph 0.00 in Rain Light Rain
2:09 AM 64.4 °F - 62.6 °F 94% 29.87 in 10.0 mi West 13.8 mph - 0.00 in   Overcast
2:32 AM 60.8 °F - 57.2 °F 88% 29.90 in 10.0 mi NW 26.5 mph 31.1 mph 0.01 in   Overcast
2:53 AM 55.0 °F - 51.1 °F 86% 29.96 in 10.0 mi WNW 23.0 mph 29.9 mph 0.01 in   Overcast
3:51 AM 50.0 °F - 44.6 °F 82% 29.96 in 10.0 mi NW 20.7 mph 25.3 mph N/A   Overcast
3:52 AM 50.0 °F - 45.0 °F 83% 30.00 in 10.0 mi NW 20.7 mph 25.3 mph N/A   Overcast
4:25 AM 48.2 °F - 44.6 °F 87% 29.98 in 10.0 mi NW 17.3 mph 24.2 mph N/A   Overcast
4:53 AM 46.0 °F 38.0 °F 39.9 °F 79% 30.03 in 10.0 mi NW 21.9 mph 33.4 mph N/A   Overcast
5:36 AM 39.2 °F 28.7 °F 33.8 °F 81% 30.05 in 10.0 mi WNW 23.0 mph 33.4 mph N/A   Overcast
5:48 AM 39.2 °F 29.6 °F 32.0 °F 75% 30.05 in 10.0 mi WNW 19.6 mph 29.9 mph N/A   Overcast
5:53 AM 37.9 °F 27.6 °F 32.0 °F 79% 30.09 in 10.0 mi NW 20.7 mph 32.2 mph N/A   Mostly Cloudy
6:07 AM 37.4 °F 26.1 °F 30.2 °F 75% 30.06 in 10.0 mi NNW 24.2 mph 34.5 mph N/A   Overcast
6:53 AM 36.0 °F 25.0 °F 30.0 °F 79% 30.14 in 10.0 mi NW 20.7 mph 31.1 mph N/A   Overcast
7:18 AM 35.6 °F 24.2 °F 28.4 °F 75% 30.12 in 10.0 mi NW 21.9 mph 34.5 mph N/A   Overcast
7:53 AM 34.0 °F 22.7 °F 28.0 °F 79% 30.20 in 10.0 mi NW 19.6 mph 32.2 mph N/A   Overcast
8:53 AM 34.0 °F 23.8 °F 26.1 °F 73% 30.25 in 10.0 mi NW 16.1 mph 27.6 mph N/A   Overcast
9:46 AM 33.8 °F 23.2 °F 24.8 °F 70% 30.25 in 10.0 mi NNW 17.3 mph 26.5 mph N/A   Scattered Clouds
9:53 AM 35.1 °F 24.1 °F 26.1 °F 70% 30.30 in 10.0 mi NW 19.6 mph 26.5 mph N/A   Partly Cloudy
10:53 AM 37.0 °F 27.4 °F 25.0 °F 62% 30.31 in 10.0 mi NW 17.3 mph 26.5 mph N/A   Clear
11:53 AM 39.9 °F 30.5 °F 24.1 °F 53% 30.31 in 10.0 mi NNW 19.6 mph 23.0 mph N/A   Clear
12:53 PM 42.1 °F 32.8 °F 21.0 °F 43% 30.31 in 10.0 mi NNW 21.9 mph 27.6 mph N/A   Clear
1:53 PM 42.1 °F 33.9 °F 21.0 °F 43% 30.30 in 10.0 mi NW 17.3 mph 26.5 mph N/A   Clear
2:53 PM 42.1 °F 34.5 °F 21.0 °F 43% 30.30 in 10.0 mi NW 15.0 mph 23.0 mph N/A   Clear
3:53 PM 42.1 °F 33.6 °F 19.0 °F 40% 30.33 in 10.0 mi WNW 18.4 mph 26.5 mph N/A   Clear
4:53 PM 39.0 °F 29.9 °F 17.1 °F 41% 30.35 in 10.0 mi WNW 17.3 mph - N/A   Clear
5:53 PM 37.0 °F 27.4 °F 12.0 °F 36% 30.39 in 10.0 mi WNW 17.3 mph 25.3 mph N/A   Clear
6:53 PM 35.1 °F 25.2 °F 9.0 °F 34% 30.42 in 10.0 mi WNW 16.1 mph - N/A   Clear
7:53 PM 33.1 °F 23.4 °F 8.1 °F 35% 30.46 in 10.0 mi NW 13.8 mph - N/A   Clear
8:53 PM 32.0 °F 22.5 °F 8.1 °F 37% 30.50 in 10.0 mi WNW 12.7 mph - N/A   Clear
9:53 PM 28.9 °F 17.3 °F 1.9 °F 32% 30.52 in 10.0 mi WNW 16.1 mph 26.5 mph N/A   Clear
10:53 PM 27.0 °F 13.5 °F 1.0 °F 33% 30.53 in 10.0 mi NW 19.6 mph 23.0 mph N/A   Clear
11:53 PM 26.1 °F 14.0 °F 1.0 °F 34% 30.53 in 10.0 mi NNW 15.0 mph 24.2 mph N/A   Clear